This is the latest recevied weather packets stored in our database for station/object VK2RZ. If no packets are shown the sender has not sent any weather packets the latest 10 day(s).
| Time | Temp. | Humidity | Pressure | Rain* | Wind** | Luminosity | Snow |
|---|---|---|---|---|---|---|---|
| 1777472384 | 17.22° C | 9% | - | 4.32 mm | - | - | - |
| 1777471784 | 17.22° C | 8% | - | 2.03 mm | - | - | - |
| 1777471183 | 17.22° C | 8% | - | 2.79 mm | - | - | - |
| 1777470583 | 17.22° C | 8% | - | 2.79 mm | - | - | - |
| 1777469983 | 17.22° C | 8% | - | 3.56 mm | - | - | - |
| 1777469383 | 17.22° C | 8% | - | 3.56 mm | - | - | - |
| 1777468783 | 16.67° C | 8% | - | 2.29 mm | - | - | - |
| 1777468183 | 17.22° C | 8% | - | 2.03 mm | - | - | - |
| 1777467583 | 17.22° C | 8% | - | 1.52 mm | - | - | - |
| 1777466983 | 17.22° C | 8% | - | 1.02 mm | - | - | - |
| 1777466383 | 17.78° C | 8% | - | 0 mm | - | - | - |
| 1777465783 | 19.44° C | 7% | - | 0 mm | - | - | - |
| 1777465183 | 19.44° C | 7% | - | 0 mm | - | - | - |
| 1777464583 | 19.44° C | 7% | - | 0 mm | - | - | - |
| 1777463983 | 19.44° C | 7% | - | 0 mm | - | - | - |
| 1777463383 | 18.89° C | 7% | - | 0 mm | - | - | - |
| 1777462783 | 18.89° C | 7% | - | 0 mm | - | - | - |
| 1777462183 | 18.89° C | 7% | - | 0 mm | - | - | - |
| 1777461583 | 19.44° C | 7% | - | 0 mm | - | - | - |
| 1777460983 | 19.44° C | 7% | - | 0 mm | - | - | - |
| 1777460383 | 19.44° C | 7% | - | 0 mm | - | - | - |
| 1777459783 | 18.89° C | 7% | - | 0 mm | - | - | - |
| 1777459183 | 19.44° C | 7% | - | 0 mm | - | - | - |
| 1777458583 | 19.44° C | 7% | - | 0 mm | - | - | - |
| 1777457983 | 19.44° C | 7% | - | 0 mm | - | - | - |
* Rain latest hour (hover to see other rain measurements)
** Current wind speed in m/s (hover to see current wind gust speed)